{"data":{"norad_id":56996,"intl_designator":"2023-084BY","name":"AAC-AIS-SAT2","alt_names":[],"object_type":"PAYLOAD","status":"ACTIVE","operator":null,"country":"UK","launch_date":"2023-06-12","launch_site_code":"AFWTR","launch_vehicle":null,"mission":null,"orbit_class":"UNKNOWN","rcs_meters":null,"size_class":null,"mass_kg":null,"dimensions":null,"purposes":[],"wikipedia_slug":null,"has_3d_model":false,"image_url":null,"decayed_at":null,"tle_current":{"epoch":"2026-05-25T04:36:08.917632Z","epoch_age_seconds":65398,"freshness":"FRESH","line1":"1 56996U 23084BY  26145.19176988  .00003536  00000+0  40601-3 0  9999","line2":"2 56996  98.1452 284.5620 0057430 171.5049 188.7151 14.85333992149966","mean_motion":14.85333992,"eccentricity":0.005743,"inclination_deg":98.1452,"raan_deg":284.562,"arg_perigee_deg":171.5049,"mean_anomaly_deg":188.7151,"bstar":0.00040601,"rev_number":14996,"period_min":96.947892376787,"perigee_km":572.39027508735,"apogee_km":652.68516492132,"semimajor_km":6990.6747200043,"source":"CELESTRAK","updated_at":"2026-05-25T13:37:59.792040Z"}}}